Oak Ridge, TN

6:24 PM EDT on July 22, 2017 (GMT -0400)
Oak Ridge

Weather History for KOQT - April, 2014

Change the Weather History Date:

Friday, April 4, 2014

  Actual Average (KTYS) Record (KTYS)
Temperature  
Mean Temperature 63 °F -  
Max Temperature 68 °F 68 °F 87 °F (1934)
Min Temperature 55 °F 45 °F 24 °F (1879)
Degree Days  
Heating Degree Days 2    
Growing Degree Days 13 (Base 50)    
Moisture  
Dew Point 57 °F    
Average Humidity 78    
Maximum Humidity 93    
Minimum Humidity 57    
Precipitation  
Precipitation 0.29 in - - ()
Sea Level Pressure  
Sea Level Pressure 29.84 in    
Wind  
Wind Speed 6 mph (SW)    
Max Wind Speed 13 mph    
Max Gust Speed 25 mph    
Visibility 9 miles    
Events Rain    
Averages and records for this station are not official NWS values.
T = Trace of Precipitation, MM = Missing Value Source: NWS Daily Summary

Daily Weather History Graph

Daily Weather History Graph

Search for Another Location

Airport or City:

Trip Planner

Search our weather history database for the weather conditions in past years. The results will help you decide how hot, cold, wet, or windy it might be!

Date:

Astronomy

Apr. 04, 2014 Rise Set
Actual Time 7:18 AM EDT 8:01 PM EDT
Civil Twilight 6:53 AM EDT 8:27 PM EDT
Nautical Twilight 6:22 AM EDT 8:57 PM EDT
Astronomical Twilight 5:51 AM EDT 9:29 PM EDT
Moon 10:41 AM EDT (4/4) 12:12 AM EDT (4/4)
Length of Visible Light 13h 34m
Length of Day
12h 42m
Waxing Crescent, 25% of the Moon is Illuminated
Apr 4
Waxing Crescent
Apr 7
First Quarter
Apr 15
Full
Apr 22
Last Quarter
Apr 29
New

Hourly Weather History & Observations

Time (EDT) Temp. Dew Point Humidity Pressure Visibility Wind Dir Wind Speed Gust Speed Precip Events Conditions
12:53 AM 66.0 °F 57.0 °F 73% 29.85 in 10.0 mi West 3.5 mph - N/A   Clear
1:53 AM 63.0 °F 57.0 °F 81% 29.84 in 10.0 mi Calm Calm - N/A   Clear
2:53 AM 64.0 °F 57.0 °F 78% 29.83 in 10.0 mi WSW 3.5 mph - N/A   Clear
3:53 AM 62.1 °F 55.9 °F 80% 29.81 in 10.0 mi Calm Calm - N/A   Clear
4:53 AM 64.9 °F 54.0 °F 68% 29.77 in 10.0 mi Variable 4.6 mph - N/A   Clear
5:53 AM 66.9 °F 55.0 °F 66% 29.78 in 10.0 mi Variable 6.9 mph 18.4 mph N/A   Partly Cloudy
6:53 AM 66.9 °F 55.9 °F 68% 29.77 in 10.0 mi Variable 4.6 mph - N/A   Overcast
7:53 AM 66.9 °F 57.0 °F 70% 29.74 in 10.0 mi SSW 9.2 mph - N/A   Overcast
8:53 AM 64.9 °F 59.0 °F 81% 29.77 in 3.0 mi SW 8.1 mph 25.3 mph 0.00 in Rain Rain
8:56 AM 64.0 °F 60.1 °F 87% 29.80 in 1.8 mi Variable 6.9 mph 20.7 mph 0.06 in Rain Heavy Rain
9:06 AM 64.0 °F 60.1 °F 87% 29.81 in 3.0 mi Variable 5.8 mph - 0.11 in Rain Light Rain
9:20 AM 63.0 °F 61.0 °F 93% 29.82 in 2.0 mi SW 8.1 mph - 0.14 in Rain Light Rain
9:26 AM 63.0 °F 61.0 °F 93% 29.86 in 4.0 mi WNW 12.7 mph 18.4 mph 0.14 in Rain Light Rain
9:28 AM 63.0 °F 60.1 °F 90% 29.86 in 1.8 mi West 12.7 mph 24.2 mph 0.15 in Rain Light Rain
9:41 AM 61.0 °F 57.0 °F 87% 29.87 in 3.0 mi Variable 5.8 mph 17.3 mph 0.25 in Rain Light Rain
9:53 AM 61.0 °F 57.0 °F 87% 29.84 in 8.0 mi Variable 4.6 mph - 0.25 in Rain Light Rain
10:53 AM 60.1 °F 57.9 °F 93% 29.84 in 10.0 mi South 4.6 mph - 0.03 in Rain Light Rain
11:41 AM 60.1 °F 57.0 °F 90% 29.81 in 10.0 mi Variable 4.6 mph - 0.01 in Rain Light Rain
11:53 AM 61.0 °F 57.9 °F 90% 29.79 in 10.0 mi Variable 3.5 mph - 0.01 in   Overcast
12:41 PM 62.1 °F 59.0 °F 90% 29.84 in 10.0 mi Variable 6.9 mph - N/A   Overcast
12:53 PM 64.0 °F 59.0 °F 84% 29.82 in 10.0 mi Variable 4.6 mph - N/A   Mostly Cloudy
1:05 PM 64.9 °F 60.1 °F 84% 29.84 in 10.0 mi Variable 4.6 mph - N/A   Partly Cloudy
1:48 PM 66.2 °F 60.8 °F 83% 29.84 in 10.0 mi SW 10.4 mph 19.6 mph N/A   Mostly Cloudy
1:53 PM 66.9 °F 59.0 °F 76% 29.82 in 10.0 mi SW 9.2 mph 20.7 mph N/A   Mostly Cloudy
2:15 PM 66.9 °F 57.9 °F 73% 29.84 in 10.0 mi SW 11.5 mph 21.9 mph N/A   Mostly Cloudy
2:53 PM 66.9 °F 57.0 °F 70% 29.81 in 10.0 mi SW 10.4 mph 25.3 mph N/A   Overcast
3:53 PM 66.0 °F 57.9 °F 75% 29.83 in 10.0 mi SSW 10.4 mph 24.2 mph 0.00 in Rain Light Rain
4:22 PM 66.0 °F 59.0 °F 78% 29.84 in 10.0 mi SSW 10.4 mph 21.9 mph 0.00 in   Mostly Cloudy
4:53 PM 66.0 °F 57.9 °F 75% 29.83 in 10.0 mi SSW 12.7 mph 23.0 mph 0.00 in   Overcast
5:09 PM 64.9 °F 57.0 °F 75% 29.86 in 10.0 mi Variable 6.9 mph 18.4 mph N/A   Overcast
5:45 PM 64.9 °F 57.0 °F 75% 29.87 in 10.0 mi SW 10.4 mph 20.7 mph 0.00 in Rain Light Rain
5:53 PM 64.9 °F 57.9 °F 78% 29.84 in 10.0 mi Variable 6.9 mph 19.6 mph 0.00 in   Overcast
6:53 PM 66.0 °F 57.0 °F 73% 29.84 in 10.0 mi SSW 10.4 mph - N/A   Clear
7:53 PM 64.0 °F 55.0 °F 73% 29.86 in 10.0 mi SW 6.9 mph - N/A   Clear
8:53 PM 63.0 °F 55.9 °F 78% 29.88 in 10.0 mi Variable 3.5 mph - N/A   Scattered Clouds
9:53 PM 62.1 °F 46.9 °F 58% 29.92 in 10.0 mi West 6.9 mph 16.1 mph N/A   Clear
10:53 PM 60.1 °F 45.0 °F 57% 29.95 in 10.0 mi Variable 5.8 mph - N/A   Partly Cloudy
11:53 PM 55.9 °F 43.0 °F 62% 29.98 in 10.0 mi NNW 5.8 mph - N/A   Clear